Regional Weather Roundup
Issued by NWS

Home | Current Version | Previous Version | Text Only | Print | Product List | Glossary Off
Versions: 1 2 3 4 5 6 7 8 9 10 11 12 13 14 15 16 17 18 19 20 21 22 23 24 25 26 27 28 29 30 31 32 33 34 35 36 37 38 39 40 41 42 43 44 45 46 47 48 49 50

000
ASUS43 KLOT 231608
RWRIL

ILLINOIS REGIONAL WEATHER ROUNDUP
NATIONAL WEATHER SERVICE CHICAGO/ROMEOVILLE IL
1000 AM CST MON JAN 23 2017

NOTE: "FAIR" INDICATES FEW OR NO CLOUDS BELOW 12,000 FEET WITH NO
SIGNIFICANT WEATHER AND/OR OBSTRUCTIONS TO VISIBILITY.

* THESE STATIONS ARE NOT UNDER NWS QUALITY CONTROL. THEY ALSO MAY NOT
  REPORT WEATHER SUCH AS PRECIPITATION OR FOG.

ILZ001-002-007-009-015-016-024-231700-
NORTHWEST ILLINOIS

CITY           SKY/WX    TMP DP  RH WIND       PRES   REMARKS
MOLINE         CLOUDY    39  34  82 NW9       29.83R WCI  33
STERLING*      CLOUDY    39  36  89 N12       29.82R WCI  32
SAVANNA*       CLOUDY    38  35  90 NW7       29.82S WCI  32
$$

ILZ003-004-008-010-011-017-018-231700-
NORTH CENTRAL ILLINOIS

CITY           SKY/WX    TMP DP  RH WIND       PRES   REMARKS
ROCKFORD       CLOUDY    39  35  86 N8        29.81S WCI  33
FREEPORT*      CLOUDY    37  36  93 N7        29.82R WCI  32
ROCHELLE*      CLOUDY    37  36  95 N10       29.81R FOG     WCI  30
DE KALB*       CLOUDY    37  36  95 NW6       29.80R FOG     WCI  33
PERU*          CLOUDY    37  35  90 N9        29.81S FOG     WCI  31
$$

ILZ005-006-012>014-019>023-231700-
NORTHEAST ILLINOIS

CITY           SKY/WX    TMP DP  RH WIND       PRES   REMARKS
CHICAGO-OHARE  CLOUDY    38  35  89 N9G20     29.77S WCI  31
CHICAGO-MIDWAY CLOUDY    40  34  79 N14G24    29.77R
AURORA         CLOUDY    39  36  89 NW9       29.79R WCI  33
LANSING*       CLOUDY    38  37  93 N10G17    29.77R WCI  31
JOLIET*        CLOUDY    40  37  86 N8        29.79R
WAUKEGAN       CLOUDY    39  36  89 NW8       29.77R WCI  33
DUPAGE AIRPORT CLOUDY    39  34  82 N14       29.78R WCI  31
KANKAKEE*      CLOUDY    39  35  86 N9        29.79R WCI  33
WHEELING       CLOUDY    39  35  86 NW6       29.78R WCI  35
MORRIS*        CLOUDY    39  36  89 N7        29.78S WCI  34
ROMEOVILLE*    CLOUDY    38  37  94 N12       29.78R WCI  31
NORTHERLY ISL    N/A     38  35  89 N9          N/A  WCI  31
$$

LMZ740>746-231700-
SOUTHERN LAKE MICHIGAN

STATION/POSITION SKY/WX   TEMP    WIND        PRES    VSBY  WAVE
                          AIR SEA DIR/SP/G                  HT/PER
                          (F)     (DEG/KT/KT) (MB)    (MI)  (FT/S)
HARRISON CRIB              37     340/ 10/ 10   N/A
BURNHAM HARBOR             38     350/  7/ 12   N/A
CALUMET HARBOR             37     330/ 11/ 14 1007.8
BURNS HARBOR               36     350/ 12/ 15 1008.8R
MICHIGAN CITY              37     330/ 16/ 17   N/A
$$

ILZ025>027-034>036-040-047-049-050-058-095>099-231700-
WEST-CENTRAL ILLINOIS

CITY           SKY/WX    TMP DP  RH WIND       PRES   REMARKS
QUINCY         CLOUDY    39  34  82 N14       29.85S WCI  31
GALESBURG*     CLOUDY    37  36  94 NW8       29.83R WCI  31
MACOMB*        CLOUDY    38  36  94 NW10      29.86R WCI  30
JACKSONVILLE*  CLOUDY    39  36  88 NW9       29.84R WCI  33
PITTSFIELD*    CLOUDY    40  35  84 NW10      29.86R
$$

ILZ028>032-037-038-041>044-048-051>054-059>061-231700-
CENTRAL ILLINOIS

CITY           SKY/WX    TMP DP  RH WIND       PRES   REMARKS
PONTIAC        CLOUDY    40  38  95 NW13      29.80S
BLOOMINGTON    CLOUDY    38  34  85 N15       29.80R WCI  29
DECATUR        CLOUDY    39  36  89 N13G23    29.80R WCI  31
PEORIA         CLOUDY    38  36  92 N9        29.82R FOG     WCI  31
LACON*         CLOUDY    37  36  95 N5        29.81S FOG     WCI  34
LINCOLN*       CLOUDY    40  36  86 N13       29.82R
SPRINGFIELD    CLOUDY    40  36  86 N12       29.82S FOG
TAYLORVILLE    CLOUDY    38  35  89 N15       29.81F WCI  29
$$

ILZ033-039-045-046-055>057-062-063-231700-
EAST-CENTRAL ILLINOIS

CITY           SKY/WX    TMP DP  RH WIND       PRES   REMARKS
CHAMPAIGN      CLOUDY    38  35  89 N13       29.79R WCI  30
RANTOUL*       CLOUDY    39  37  91 N15       29.78R WCI  31
MATTOON        CLOUDY    39  35  86 N17G24    29.77R WCI  30
PARIS*         CLOUDY    39  37  91 N12       29.77R WCI  32
$$

ILZ079-100>102-231700-
SOUTHWEST ILLINOIS

CITY           SKY/WX    TMP DP  RH WIND       PRES   REMARKS
ALTON          CLOUDY    39  36  87 NW16      29.83R WCI  30
BELLEVILLE     CLOUDY    42  38  83 NW13      29.81R
CAHOKIA*       CLOUDY    43  34  70 N16G26    29.83R
SPARTA*        CLOUDY    41  35  80 N9        29.83R
$$

ILZ064>066-069>071-074>076-080>082-084>086-088>090-092>094-231700-
SOUTH-CENTRAL ILLINOIS

CITY           SKY/WX    TMP DP  RH WIND       PRES   REMARKS
CARBONDALE     CLOUDY    41  37  86 NW17      29.81R
CAIRO*         CLOUDY    44  37  78 N18       29.79R
EFFINGHAM*     CLOUDY    40  38  93 NW15G22   29.80S
MARION         CLOUDY    43  39  87 N17G25    29.80R
MT. VERNON     CLOUDY    40  35  83 N9        29.78S
CENTRALIA*     CLOUDY    40  37  87 N15G22    29.78F
SALEM*         CLOUDY    40  36  84 N16G23    29.80R
METROPOLIS*    CLOUDY    44  37  76 N16G23    29.78R
$$

ILZ067-068-072-073-078-083-087-091-231700-
SOUTHEAST ILLINOIS

CITY           SKY/WX    TMP DP  RH WIND       PRES   REMARKS
LAWRENCEVILLE  CLOUDY    42  39  89 NW17      29.75R
FLORA*         CLOUDY    42  37  83 N16G25    29.79R
FAIRFIELD*     CLOUDY    41  37  84 N13       29.77R
HARRISBURG*    CLOUDY    42  37  83 N9G16     29.78R
ROBINSON*      CLOUDY    40  37  90 N16       29.76R
CARMI*         CLOUDY    42  38  83 NW18G25   29.76R
$$

ABBREVIATIONS USED IN REMARKS
   TC - TEMPERATURE IN CELSIUS
  WCI - WIND CHILL INDEX
   HX - HEAT INDEX
  VSB - VISIBILITY
$$





USA.gov is the U.S. government's official web portal to all federal, state and local government web resources and services.